Watsonville, CA

10:17 AM PST on December 06, 2019 (GMT -0800)
Watsonville Municipal

Weather History for KWVI - August, 2019

Change the Weather History Date:

Tuesday, August 27, 2019

  Actual Average Record
Temperature  
Mean Temperature 66 °F 64 °F  
Max Temperature 74 °F 75 °F 94 °F (2009)
Min Temperature 57 °F 53 °F 47 °F (2002)
Degree Days  
Heating Degree Days 0    
Month to date heating degree days 11  
Since 1 June heating degree days 149  
Since 1 July heating degree days 58  
Cooling Degree Days 1    
Month to date cooling degree days 49  
Year to date cooling degree days 103  
Since 1 June cooling degree days 103  
Growing Degree Days 15 (Base 50)    
Moisture  
Dew Point 57 °F    
Average Humidity 73    
Maximum Humidity 93    
Minimum Humidity 53    
Precipitation  
Precipitation 0.00 in - 0.01 in (1961)
Month to date precipitation 0.02  
Year to date precipitation 22.78  
Sea Level Pressure  
Sea Level Pressure 29.86 in    
Wind  
Wind Speed 4 mph (WSW)    
Max Wind Speed 12 mph    
Max Gust Speed 17 mph    
Visibility 5 miles    
Events Fog    
T = Trace of Precipitation, MM = Missing Value Source: NWS Daily Summary

Daily Weather History Graph

Daily Weather History Graph

Search for Another Location

Airport or City:

Astronomy

Aug. 27, 2019 Rise Set
Actual Time 6:33 AM PDT 7:42 PM PDT
Civil Twilight 6:07 AM PDT 8:09 PM PDT
Nautical Twilight 5:35 AM PDT 8:41 PM PDT
Astronomical Twilight 5:01 AM PDT 9:14 PM PDT
Moon 3:09 AM PDT (8/27) 6:03 PM PDT (8/27)
Length of Visible Light 14h 02m
Length of Day
13h 09m
Waning Crescent, 10% of the Moon is Illuminated
Aug 27
Waning Crescent
Aug 30
New
Sep 5
First Quarter
Sep 13
Full
Sep 21
Last Quarter

Hourly Weather History & Observations

Time (PDT) Temp. Dew Point Humidity Pressure Visibility Wind Dir Wind Speed Gust Speed Precip Events Conditions
12:13 AM 59.0 °F 57.0 °F 93% 29.88 in 2.5 mi Calm Calm - N/A   Overcast
12:21 AM 59.0 °F 57.0 °F 93% 29.88 in 6.0 mi Calm Calm - N/A   Overcast
12:53 AM 60.1 °F 57.0 °F 90% 29.88 in 6.0 mi Calm Calm - N/A   Overcast
1:53 AM 60.1 °F 55.9 °F 86% 29.87 in 9.0 mi Calm Calm - N/A   Overcast
2:19 AM 59.0 °F 55.9 °F 90% 29.86 in 1.5 mi Calm Calm - N/A   Overcast
2:23 AM 57.9 °F 55.9 °F 93% 29.86 in 0.8 mi Calm Calm - N/A   Overcast
2:53 AM 57.9 °F 55.9 °F 93% 29.85 in 0.5 mi Calm Calm - N/A Fog Fog
3:13 AM 57.9 °F 55.9 °F 93% 29.85 in 1.5 mi Calm Calm - N/A   Overcast
3:20 AM 57.9 °F 55.9 °F 93% 29.85 in 2.5 mi Calm Calm - N/A   Overcast
3:27 AM 57.9 °F 55.9 °F 93% 29.84 in 1.2 mi Calm Calm - N/A   Overcast
3:48 AM 57.2 °F 55.4 °F 94% 29.84 in 0.5 mi Calm Calm - N/A Fog Fog
3:53 AM 57.9 °F 55.9 °F 93% 29.84 in 0.8 mi Calm Calm - N/A   Mist
4:47 AM 57.2 °F 55.4 °F 94% 29.84 in 1.5 mi Calm Calm - N/A   Overcast
4:53 AM 57.9 °F 55.9 °F 93% 29.84 in 1.5 mi Calm Calm - N/A   Overcast
5:00 AM 57.9 °F 55.9 °F 93% 29.84 in 1.0 mi Calm Calm - N/A   Mist
5:11 AM 57.9 °F 55.9 °F 93% 29.84 in 0.8 mi Calm Calm - N/A   Mist
5:53 AM 57.0 °F 55.0 °F 93% 29.84 in 0.5 mi Calm Calm - N/A Fog Fog
6:25 AM 57.9 °F 55.9 °F 93% 29.85 in 1.5 mi Calm Calm - N/A   Overcast
6:48 AM 57.2 °F 55.4 °F 94% 29.86 in 0.8 mi Calm Calm - N/A   Mist
6:53 AM 57.9 °F 55.9 °F 93% 29.86 in 0.5 mi Calm Calm - N/A Fog Fog
7:08 AM 57.0 °F 55.0 °F 93% 29.86 in 1.0 mi Calm Calm - N/A   Mist
7:17 AM 57.0 °F 55.0 °F 93% 29.85 in 0.5 mi Calm Calm - N/A Fog Fog
7:29 AM 57.0 °F 55.9 °F 96% 29.86 in 0.2 mi Calm Calm - N/A Fog Fog
7:53 AM 57.0 °F 55.9 °F 96% 29.86 in 0.2 mi Calm Calm - N/A Fog Fog
8:03 AM 57.9 °F 55.9 °F 93% 29.86 in 1.0 mi Calm Calm - N/A   Mist
8:14 AM 57.9 °F 55.9 °F 93% 29.87 in 2.0 mi Calm Calm - N/A   Overcast
8:23 AM 57.9 °F 55.9 °F 93% 29.87 in 4.0 mi Calm Calm - N/A   Overcast
8:53 AM 60.1 °F 57.0 °F 90% 29.87 in 6.0 mi Calm Calm - N/A   Overcast
9:23 AM 63.0 °F 55.9 °F 78% 29.87 in 10.0 mi South 4.6 mph - N/A   Mostly Cloudy
9:33 AM 64.0 °F 55.9 °F 75% 29.87 in 10.0 mi Calm Calm - N/A   Scattered Clouds
9:53 AM 66.0 °F 55.9 °F 70% 29.87 in 10.0 mi South 4.6 mph - N/A   Clear
10:53 AM 71.1 °F 57.9 °F 63% 29.87 in 10.0 mi South 5.8 mph - N/A   Clear
11:53 AM 72.0 °F 55.9 °F 57% 29.87 in 10.0 mi SW 10.4 mph - N/A   Clear
12:53 PM 73.9 °F 55.9 °F 53% 29.86 in 10.0 mi West 6.9 mph - N/A   Clear
1:53 PM 73.9 °F 57.0 °F 55% 29.86 in 10.0 mi West 6.9 mph - N/A   Clear
2:53 PM 70.0 °F 57.9 °F 65% 29.86 in 10.0 mi West 10.4 mph - N/A   Clear
3:53 PM 70.0 °F 59.0 °F 68% 29.85 in 10.0 mi WSW 9.2 mph - N/A   Clear
4:53 PM 68.0 °F 59.0 °F 73% 29.85 in 10.0 mi WSW 9.2 mph - N/A   Clear
5:01 PM 68.0 °F 59.0 °F 73% 29.85 in 10.0 mi West 9.2 mph - N/A   Partly Cloudy
5:53 PM 64.0 °F 57.9 °F 80% 29.85 in 10.0 mi WSW 5.8 mph - N/A   Overcast
6:24 PM 63.0 °F 59.0 °F 87% 29.85 in 10.0 mi WSW 5.8 mph - N/A   Overcast
6:53 PM 62.1 °F 57.9 °F 86% 29.85 in 10.0 mi West 3.5 mph - N/A   Overcast
7:24 PM 62.1 °F 57.9 °F 86% 29.85 in 9.0 mi West 3.5 mph - N/A   Overcast
7:53 PM 62.1 °F 59.0 °F 90% 29.86 in 10.0 mi West 3.5 mph - N/A   Overcast
8:53 PM 61.0 °F 57.9 °F 90% 29.87 in 5.0 mi WSW 3.5 mph - N/A   Overcast
9:53 PM 60.1 °F 57.9 °F 93% 29.88 in 4.0 mi South 3.5 mph - N/A   Overcast
10:53 PM 60.1 °F 57.9 °F 93% 29.88 in 4.0 mi WSW 3.5 mph - N/A   Overcast
11:23 PM 60.1 °F 57.9 °F 93% 29.89 in 2.5 mi WSW 3.5 mph - N/A   Overcast
11:31 PM 60.1 °F 57.9 °F 93% 29.88 in 3.0 mi Calm Calm - N/A   Overcast
11:53 PM 60.1 °F 57.9 °F 93% 29.89 in 3.0 mi SSW 4.6 mph - N/A   Overcast